Total_Precipitation_Accumulation
0.00 0.01 0.01 0.00 0.01 0.01 0.00 0.00 0.00 0.01 0.04 0.07 0.29 0.16 0.12 0.03 0.02 0.05 0.04 0.05 0.09 0.03 0.02 0.04 0.02 0.00 0.00 0.00 0.00 0.00 0.00 0.00 0.00 0.00 0.00 0.00 0.00 0.00 0.00 0.00 0.00 0.00 0.00
0.03 0.00 0.00 0.00 0.00 0.00 0.00 0.00 0.00 0.00 0.00 0.01 0.04 0.19 0.12 0.06 0.07 0.09 0.02 0.03 0.09 0.04 0.01 0.01 0.01 0.00 0.01 0.00 0.00 0.00 0.00 0.00 0.00 0.00 0.00 0.00 0.00 0.00 0.00 0.00 0.00 0.00 0.00
0.21 0.16 0.15 0.06 0.02 0.00 0.00 0.00 0.00 0.00 0.00 0.00 0.00 0.07 0.09 0.03 0.04 0.04 0.05 0.04 0.05 0.04 0.03 0.03 0.00 0.00 0.02 0.00 0.01 0.00 0.00 0.00 0.00 0.00 0.00 0.00 0.00 0.00 0.00 0.00 0.00 0.00 0.00
0.50 0.66 0.35 0.24 0.15 0.06 0.04 0.02 0.00 0.00 0.00 0.00 0.00 0.00 0.03 0.03 0.02 0.02 0.06 0.18 0.07 0.05 0.04 0.01 0.00 0.00 0.01 0.01 0.00 0.00 0.00 0.00 0.00 0.00 0.00 0.00 0.00 0.00 0.00 0.00 0.00 0.00 0.00
0.45 0.81 0.86 0.49 0.35 0.23 0.16 0.11 0.12 0.07 0.01 0.00 0.00 0.00 0.00 0.00 0.00 0.00 0.01 0.03 0.05 0.05 0.03 0.01 0.00 0.00 0.00 0.00 0.00 0.01 0.01 0.00 0.00 0.00 0.00 0.00 0.00 0.00 0.00 0.00 0.00 0.00 0.00
0.57 0.57 0.47 0.42 0.47 0.36 0.21 0.12 0.08 0.07 0.08 0.08 0.03 0.02 0.00 0.00 0.00 0.00 0.00 0.00 0.02 0.06 0.02 0.00 0.00 0.00 0.00 0.00 0.00 0.00 0.00 0.00 0.00 0.00 0.00 0.00 0.00 0.00 0.00 0.00 0.00 0.00 0.00
0.21 0.32 0.27 0.38 0.37 0.41 0.38 0.27 0.27 0.18 0.06 0.05 0.07 0.07 0.03 0.03 0.03 0.01 0.00 0.00 0.01 0.04 0.04 0.02 0.01 0.00 0.00 0.00 0.00 0.00 0.00 0.00 0.00 0.00 0.00 0.00 0.00 0.00 0.00 0.00 0.00 0.00 0.00
0.09 0.06 0.06 0.11 0.22 0.23 0.27 0.16 0.15 0.17 0.15 0.09 0.05 0.07 0.07 0.04 0.06 0.08 0.14 0.04 0.00 0.00 0.00 0.01 0.01 0.00 0.00 0.01 0.02 0.00 0.00 0.00 0.00 0.00 0.00 0.00 0.00 0.00 0.00 0.00 0.00 0.00 0.00
0.02 0.05 0.06 0.04 0.12 0.13 0.18 0.21 0.19 0.13 0.07 0.06 0.07 0.09 0.10 0.06 0.07 0.07 0.15 0.23 0.05 0.00 0.00 0.00 0.00 0.00 0.00 0.00 0.00 0.00 0.00 0.00 0.00 0.00 0.00 0.00 0.00 0.00 0.00 0.00 0.00 0.00 0.00
0.03 0.08 0.14 0.13 0.11 0.09 0.10 0.16 0.21 0.24 0.25 0.24 0.13 0.11 0.07 0.05 0.12 0.13 0.14 0.06 0.02 0.00 0.00 0.01 0.01 0.00 0.00 0.00 0.00 0.00 0.00 0.00 0.00 0.00 0.00 0.00 0.00 0.00 0.00 0.00 0.00 0.00 0.00
0.00 0.00 0.00 0.04 0.08 0.13 0.13 0.11 0.15 0.20 0.23 0.24 0.23 0.21 0.15 0.16 0.16 0.23 0.19 0.12 0.09 0.07 0.05 0.02 0.00 0.01 0.00 0.00 0.00 0.00 0.00 0.00 0.00 0.00 0.00 0.00 0.00 0.00 0.00 0.00 0.00 0.00 0.00
0.00 0.00 0.00 0.00 0.00 0.03 0.09 0.10 0.07 0.11 0.15 0.20 0.25 0.19 0.26 0.35 0.30 0.24 0.29 0.25 0.25 0.12 0.04 0.09 0.10 0.04 0.04 0.00 0.00 0.00 0.00 0.00 0.00 0.00 0.00 0.00 0.00 0.00 0.00 0.00 0.00 0.00 0.00
0.00 0.00 0.00 0.00 0.00 0.00 0.03 0.07 0.08 0.08 0.06 0.08 0.15 0.14 0.15 0.23 0.22 0.36 0.53 0.42 0.37 0.24 0.14 0.08 0.09 0.08 0.05 0.01 0.00 0.00 0.00 0.00 0.00 0.00 0.00 0.00 0.00 0.00 0.00 0.00 0.00 0.00 0.00
0.00 0.00 0.00 0.00 0.00 0.00 0.00 0.00 0.01 0.02 0.02 0.02 0.06 0.11 0.15 0.21 0.21 0.31 0.50 0.56 0.52 0.29 0.26 0.14 0.05 0.01 0.01 0.01 0.01 0.00 0.00 0.00 0.00 0.00 0.00 0.00 0.00 0.00 0.00 0.00 0.00 0.00 0.00
0.00 0.00 0.00 0.00 0.00 0.00 0.00 0.00 0.00 0.00 0.01 0.02 0.03 0.04 0.06 0.08 0.20 0.38 0.46 0.59 0.63 0.61 0.43 0.14 0.09 0.03 0.01 0.00 0.00 0.01 0.01 0.00 0.00 0.00 0.00 0.00 0.00 0.00 0.00 0.00 0.00 0.00 0.00
0.00 0.00 0.00 0.00 0.00 0.00 0.00 0.00 0.00 0.00 0.00 0.00 0.01 0.02 0.02 0.04 0.13 0.18 0.27 0.59 0.69 0.73 0.57 0.41 0.49 0.28 0.12 0.11 0.10 0.07 0.07 0.04 0.01 0.04 0.04 0.06 0.05 0.06 0.02 0.01 0.00 0.00 0.00
0.00 0.00 0.00 0.00 0.00 0.00 0.00 0.00 0.00 0.00 0.00 0.00 0.00 0.00 0.01 0.02 0.04 0.08 0.15 0.39 0.51 0.28 0.10 0.13 0.15 0.13 0.14 0.24 0.26 0.23 0.16 0.06 0.11 0.17 0.18 0.18 0.16 0.13 0.12 0.08 0.07 0.05 0.00
0.00 0.00 0.00 0.00 0.00 0.00 0.00 0.00 0.00 0.00 0.00 0.00 0.00 0.00 0.00 0.00 0.02 0.04 0.18 0.24 0.08 0.06 0.04 0.04 0.05 0.04 0.04 0.07 0.14 0.19 0.15 0.13 0.23 0.33 0.37 0.28 0.34 0.37 0.29 0.22 0.19 0.14 0.08
0.00 0.00 0.00 0.00 0.00 0.00 0.00 0.00 0.00 0.00 0.00 0.00 0.00 0.00 0.00 0.00 0.00 0.01 0.07 0.12 0.09 0.05 0.02 0.02 0.01 0.05 0.05 0.13 0.14 0.16 0.22 0.54 0.71 1.02 1.20 1.10 1.10 1.16 1.04 0.90 0.80 0.48 0.36
0.00 0.00 0.00 0.00 0.00 0.00 0.00 0.00 0.00 0.00 0.00 0.00 0.00 0.00 0.00 0.00 0.00 0.00 0.00 0.07 0.08 0.02 0.01 0.02 0.03 0.05 0.08 0.14 0.19 0.25 0.27 0.27 0.32 0.50 0.65 0.51 0.40 0.48 0.43 0.46 0.58 0.57 0.50
0.00 0.00 0.00 0.00 0.00 0.00 0.00 0.00 0.00 0.00 0.00 0.00 0.00 0.00 0.00 0.00 0.00 0.00 0.00 0.00 0.04 0.06 0.03 0.01 0.02 0.04 0.08 0.12 0.22 0.28 0.25 0.29 0.36 0.34 0.41 0.47 0.50 0.47 0.60 0.52 0.38 0.46 0.51
0.01 0.01 0.01 0.01 0.00 0.01 0.01 0.01 0.01 0.01 0.00 0.00 0.00 0.00 0.00 0.00 0.00 0.00 0.00 0.01 0.01 0.02 0.06 0.12 0.13 0.11 0.10 0.10 0.13 0.18 0.22 0.26 0.32 0.42 0.41 0.47 0.47 0.48 0.64 0.61 0.47 0.41 0.46
0.02 0.01 0.01 0.01 0.01 0.02 0.02 0.01 0.01 0.01 0.01 0.00 0.00 0.00 0.01 0.01 0.01 0.01 0.01 0.01 0.00 0.00 0.01 0.03 0.05 0.06 0.04 0.05 0.09 0.07 0.05 0.08 0.09 0.15 0.23 0.30 0.36 0.43 0.46 0.44 0.41 0.32 0.27
0.01 0.01 0.01 0.01 0.02 0.02 0.01 0.01 0.01 0.02 0.02 0.01 0.01 0.01 0.01 0.01 0.01 0.01 0.01 0.00 0.00 0.00 0.00 0.00 0.00 0.00 0.00 0.01 0.04 0.08 0.10 0.13 0.13 0.12 0.14 0.16 0.15 0.24 0.18 0.24 0.29 0.31 0.33
0.01 0.02 0.02 0.02 0.02 0.02 0.03 0.02 0.01 0.01 0.01 0.01 0.01 0.01 0.01 0.01 0.01 0.01 0.00 0.00 0.01 0.01 0.01 0.00 0.01 0.00 0.00 0.00 0.01 0.02 0.08 0.11 0.10 0.13 0.10 0.10 0.12 0.14 0.14 0.14 0.15 0.18 0.17
0.01 0.02 0.02 0.02 0.02 0.02 0.02 0.02 0.01 0.02 0.01 0.01 0.01 0.01 0.01 0.01 0.01 0.01 0.01 0.01 0.01 0.01 0.02 0.02 0.01 0.01 0.01 0.00 0.02 0.05 0.05 0.04 0.06 0.08 0.07 0.04 0.04 0.06 0.07 0.10 0.12 0.12 0.11